"Pseudo-MPEC" for C0J3UJ5

Created 2023 Sep 23 17:22:04 UT using Find_Orb

Click here for an explanation of pseudo-MPECs

 
 Astrometry: 
     C0J3UJ5* C2023 09 16.49038805 15 42.354+57 30 08.93   ~9GCq 21.96GVNEOCPV00
     C0J3UJ5  C2023 09 16.49583905 15 42.646+57 30 09.43   ~9GCq 22.40GVNEOCPV00
     C0J3UJ5  C2023 09 16.50280905 15 43.009+57 30 10.26   ~9GCq 22.24GVNEOCPV00
     C0J3UJ5  C2023 09 16.50834305 15 43.340+57 30 10.48   ~9GCq 22.01GVNEOCPV00
     C0J3UJ5 mC2023 09 19.49066105 18 25.214+57 34 41.63   ~9JCq       VNEOCPV00
     C0J3UJ5 mC2023 09 19.49771005 18 25.578+57 34 42.20   ~9JCq 22.12GVNEOCPV00
     C0J3UJ5 mC2023 09 19.50452505 18 25.924+57 34 43.00   ~9JCq 22.35GVNEOCPV00
     C0J3UJ5 mC2023 09 19.51132905 18 26.251+57 34 43.46   ~9JCq 22.14GVNEOCPV00

Station data:
(V00) Kitt Peak-Bok  (N31.963125 W111.600190)  US/Arizona.  Observers T. A.
   Pruyne, B. M. Africano, E. J. Christensen, G. A. Farneth, D. C. Fuls, A.
   R. Gibbs, A. D. Grauer, H. Gröller, J. A. Johnson, R. A. Kowalski, S. M.
   Larson, G. J. Leonard, D. Rankin, R. L. Seaman, F. C. Shelly, K. W.
   Wierzchoś. 2.25-m reflector + 4x4K mosaic CCD.

Orbital elements:  C0J3UJ5
   Perihelion 2024 Feb 25.31876 +/- 168 TT =  7:39:00 (JD 2460365.81876)
Epoch 2023 Sep 19.0 TT = JDT 2460206.5   Earth MOID: 0.3170   Ma: 0.0029
M 331.93688307 +/- 70               (J2000 ecliptic)             AutoNEOCP
n   0.17614446 +/- 0.274            Peri.  266.43257 +/- 90
a   3.15178600 +/- 3.27             Node   243.79117 +/- 19
e   0.7325392 +/- 0.232             Incl.   70.35978 +/- 18
P   5.60                   H 18.00  G  0.15   U 11.9  SR
q 0.84297909 +/- 0.995    Q 5.46059292 +/- 39.2
From 8 observations 2023 Sept. 16-19; mean residual 0".11
Residuals in arcseconds: 
230916 V00  .05+  .05+    230916 V00  .09+  .19-    230919 V00  .12+  .11+    
230916 V00  .00   .00     230919 V00  .23-  .01+    230919 V00  .13+  .05-    
230916 V00  .14-  .14+    230919 V00  .03-  .07-    

Ephemerides (geocentric):
Date (UTC) HH   RA             Dec           delta  r     elong  mag " sig PA
---- --------  ------------   ------------  ------ ------ -----  --- --------
2023 09 23 17  05 21 39.088   +57 40 22.55  1.8586 2.1905  95.2 22.3  112  98
2023 09 23 18  05 21 40.784   +57 40 25.67  1.8577 2.1902  95.2 22.3  114  98
2023 09 23 19  05 21 42.475   +57 40 28.78  1.8568 2.1898  95.2 22.3  116  98
2023 09 23 20  05 21 44.162   +57 40 31.88  1.8558 2.1894  95.3 22.3  118  98
2023 09 23 21  05 21 45.844   +57 40 34.98  1.8549 2.1890  95.3 22.3  120  98
2023 09 23 22  05 21 47.522   +57 40 38.07  1.8540 2.1886  95.3 22.3  122  98
2023 09 23 23  05 21 49.195   +57 40 41.16  1.8531 2.1882  95.4 22.3  123  98
2023 09 24 00  05 21 50.864   +57 40 44.24  1.8522 2.1878  95.4 22.3  125  98
2023 09 24 01  05 21 52.528   +57 40 47.32  1.8512 2.1874  95.4 22.3  127  98
2023 09 24 02  05 21 54.187   +57 40 50.39  1.8503 2.1871  95.5 22.3  129  98
2023 09 24 03  05 21 55.842   +57 40 53.45  1.8494 2.1867  95.5 22.3  131  98
2023 09 24 04  05 21 57.493   +57 40 56.51  1.8485 2.1863  95.5 22.3  133  98
2023 09 24 05  05 21 59.138   +57 40 59.56  1.8475 2.1859  95.5 22.3  135  98
2023 09 24 06  05 22 00.780   +57 41 02.61  1.8466 2.1855  95.6 22.3  137  98
2023 09 24 07  05 22 02.416   +57 41 05.65  1.8457 2.1851  95.6 22.3  139  98
2023 09 24 08  05 22 04.048   +57 41 08.68  1.8448 2.1847  95.6 22.2  141  98
2023 09 24 09  05 22 05.676   +57 41 11.71  1.8439 2.1843  95.7 22.2  143  98
2023 09 24 10  05 22 07.299   +57 41 14.73  1.8429 2.1840  95.7 22.2  145  98
2023 09 24 11  05 22 08.917   +57 41 17.75  1.8420 2.1836  95.7 22.2  147  98
2023 09 24 12  05 22 10.530   +57 41 20.76  1.8411 2.1832  95.8 22.2  149  98
2023 09 24 13  05 22 12.139   +57 41 23.76  1.8402 2.1828  95.8 22.2  151  98
2023 09 24 14  05 22 13.744   +57 41 26.76  1.8393 2.1824  95.8 22.2  153  98
2023 09 24 15  05 22 15.343   +57 41 29.75  1.8383 2.1820  95.8 22.2  155  98
2023 09 24 16  05 22 16.938   +57 41 32.74  1.8374 2.1816  95.9 22.2  157  98
2023 09 24 17  05 22 18.529   +57 41 35.72  1.8365 2.1812  95.9 22.2  160  98
2023 09 24 18  05 22 20.114   +57 41 38.69  1.8356 2.1809  95.9 22.2  162  98
2023 09 24 19  05 22 21.696   +57 41 41.66  1.8346 2.1805  96.0 22.2  164  98
2023 09 24 20  05 22 23.272   +57 41 44.62  1.8337 2.1801  96.0 22.2  166  98
2023 09 24 21  05 22 24.844   +57 41 47.58  1.8328 2.1797  96.0 22.2  168  98
2023 09 24 22  05 22 26.411   +57 41 50.53  1.8319 2.1793  96.0 22.2  170  98
2023 09 24 23  05 22 27.973   +57 41 53.47  1.8309 2.1789  96.1 22.2  173  98
2023 09 25 00  05 22 29.531   +57 41 56.41  1.8300 2.1785  96.1 22.2  175  98
2023 09 25 01  05 22 31.084   +57 41 59.34  1.8291 2.1781  96.1 22.2  177  98
2023 09 25 02  05 22 32.632   +57 42 02.27  1.8282 2.1778  96.2 22.2  179  98
2023 09 25 03  05 22 34.175   +57 42 05.19  1.8273 2.1774  96.2 22.2  182  98
2023 09 25 04  05 22 35.714   +57 42 08.10  1.8263 2.1770  96.2 22.2  184  98
2023 09 25 05  05 22 37.248   +57 42 11.01  1.8254 2.1766  96.3 22.2  186  98
2023 09 25 06  05 22 38.778   +57 42 13.91  1.8245 2.1762  96.3 22.2  189  98
2023 09 25 07  05 22 40.302   +57 42 16.80  1.8236 2.1758  96.3 22.2  191  98
2023 09 25 08  05 22 41.822   +57 42 19.69  1.8226 2.1754  96.3 22.2  193  98
2023 09 25 09  05 22 43.337   +57 42 22.57  1.8217 2.1750  96.4 22.2  196  98
2023 09 25 10  05 22 44.848   +57 42 25.44  1.8208 2.1746  96.4 22.2  198  98
2023 09 25 11  05 22 46.353   +57 42 28.31  1.8199 2.1743  96.4 22.2  200  98
2023 09 25 12  05 22 47.854   +57 42 31.17  1.8190 2.1739  96.5 22.2  203  98
2023 09 25 13  05 22 49.350   +57 42 34.03  1.8180 2.1735  96.5 22.2  205  98
2023 09 25 14  05 22 50.841   +57 42 36.88  1.8171 2.1731  96.5 22.2  208  98
2023 09 25 15  05 22 52.328   +57 42 39.72  1.8162 2.1727  96.6 22.2  210  98
2023 09 25 16  05 22 53.809   +57 42 42.56  1.8153 2.1723  96.6 22.2  213  98